DW3478 Weather Reports


Display with metric or nautical units.
time (UTC)temp
F
wind
direction
speed
MPH
gust
MPH
rain 1hr
in
rain 24hr
in
rain mn
in
humidity
%
barometer
mb
20260902163804 77 139 4.0 7.0 0.00 0.01 0.01 74 1020.0
20260902163304 77 155 6.0 9.0 0.00 0.01 0.01 74 1020.0
20260902162307 77 166 5.0 9.0 0.00 0.01 0.01 74 1020.0
20260902155804 77 175 7.0 12.0 0.00 0.01 0.01 73 1021.0
20260902155307 77 154 6.0 10.0 0.00 0.01 0.01 74 1021.0
20260902154804 77 155 7.0 10.0 0.00 0.01 0.01 73 1021.0
20260902154305 77 153 7.0 12.0 0.00 0.01 0.01 73 1021.0
20260902151806 78 149 5.0 7.0 0.00 0.01 0.01 72 1021.0
20260902151306 77 183 5.0 9.0 0.00 0.01 0.01 74 1021.0
20260902145805 78 210 5.0 10.0 0.00 0.01 0.01 74 1021.0
20260902145306 77 210 5.0 9.0 0.00 0.01 0.01 74 1021.0
20260902142306 79 211 6.0 9.0 0.00 0.01 0.01 69 1021.0
20260902141806 80 244 5.0 9.0 0.00 0.01 0.01 66 1021.0
20260902135307 77 235 7.0 14.0 0.00 0.01 0.01 70 1021.0
20260902133305 82 283 3.0 7.0 0.00 0.01 0.01 64 1021.0
20260902130306 78 277 5.0 10.0 0.00 0.01 0.01 69 1021.0
20260902124806 79 289 3.0 8.0 0.00 0.01 0.01 71 1021.0
20260902124305 77 262 5.0 10.0 0.00 0.01 0.01 73 1021.0
20260902122805 77 257 4.0 8.0 0.00 0.01 0.01 73 1021.0
20260902122305 77 246 5.0 10.0 0.00 0.01 0.01 75 1021.0
20260902121806 75 244 5.0 7.0 0.00 0.01 0.01 76 1021.0
20260902114305 75 214 4.0 9.0 0.00 0.01 0.01 76 1021.0
20260902113305 76 192 5.0 6.0 0.00 0.01 0.01 74 1021.0
20260902112805 76 210 5.0 6.0 0.00 0.01 0.01 74 1021.0
20260902112306 75 206 5.0 8.0 0.00 0.01 0.01 75 1021.0
20260902111805 76 198 4.0 7.0 0.00 0.01 0.01 76 1021.0
20260902111306 77 211 5.0 7.0 0.00 0.01 0.01 73 1021.0
20260902105306 75 167 5.0 6.0 0.00 0.01 0.01 75 1021.0
20260902104806 76 195 5.0 7.0 0.00 0.01 0.01 75 1021.0
20260902104306 76 178 3.0 7.0 0.00 0.01 0.01 76 1021.0
20260902102805 74 184 4.0 6.0 0.00 0.01 0.01 79 1021.0
20260902100305 74 208 3.0 5.0 0.00 0.01 0.01 77 1021.0
20260902095805 74 223 3.0 6.0 0.00 0.01 0.01 78 1021.0
20260902095307 74 201 3.0 6.0 0.00 0.01 0.01 77 1021.0
20260902094805 74 200 3.0 5.0 0.00 0.01 0.01 79 1021.0
20260902092305 74 173 3.0 6.0 0.00 0.01 0.01 75 1021.0
20260902091805 74 163 3.0 6.0 0.00 0.01 0.01 75 1021.0
20260902091306 74 153 3.0 7.0 0.00 0.01 0.01 76 1021.0
20260902090805 74 165 4.0 7.0 0.00 0.01 0.01 75 1021.0
20260902084305 73 174 3.0 3.0 0.00 0.01 0.01 79 1021.0
20260902083305 72 107 2.0 3.0 0.00 0.01 0.01 79 1021.0
20260902082805 72 158 1.0 3.0 0.00 0.01 0.01 81 1021.0
20260902082309 71 169 2.0 3.0 0.00 0.01 0.01 81 1021.0
20260902081805 71 187 2.0 3.0 0.00 0.01 0.01 81 1021.0
20260902081305 71 242 0.0 3.0 0.00 0.01 0.01 81 1021.0
20260902075805 70 355 0.0 1.0 0.00 0.01 0.01 87 1020.0
20260902074805 68 340 0.0 1.0 0.00 0.01 0.01 90 1020.0
20260902073805 67 14 1.0 2.0 0.00 0.01 0.01 90 1020.0
20260902073305 67 335 1.0 2.0 0.00 0.01 0.01 90 1020.0
20260902072805 66 335 1.0 2.0 0.00 0.01 0.01 89 1020.0
20260902063305 66 355 1.0 3.0 0.00 0.01 0.01 91 1020.0
20260902062805 66 334 1.0 3.0 0.00 0.01 0.01 91 1020.0
20260902062306 66 340 1.0 2.0 0.00 0.01 0.01 91 1020.0
20260902060305 66 334 1.0 3.0 0.01 0.01 0.01 91 1020.0
20260902053805 66 13 0.0 2.0 0.01 0.01 0.01 91 1020.0
20260902053305 67 345 1.0 2.0 0.01 0.01 0.01 91 1020.0
20260902051805 67 321 1.0 2.0 0.00 0.00 0.00 91 1020.0
20260902051305 67 347 0.0 2.0 0.00 0.00 0.00 91 1020.0
20260902045306 67 11 1.0 3.0 0.00 0.00 0.00 91 1020.0
20260902044805 67 349 1.0 2.0 0.00 0.00 0.00 90 1020.0
20260902044304 67 348 1.0 2.0 0.00 0.00 0.00 90 1020.0
20260902043805 67 348 1.0 2.0 0.00 0.00 0.00 90 1020.0
20260902042805 67 355 1.0 2.0 0.00 0.00 0.00 90 1020.0
20260902042308 68 8 1.0 2.0 0.00 0.00 0.00 91 1020.0
20260902041305 68 42 0.0 1.0 0.00 0.00 0.00 91 1020.0
20260902040805 68 100 0.0 1.0 0.00 0.00 0.00 91 1020.0
20260902035804 68 41 2.0 3.0 0.00 0.00 0.00 90 1020.0
20260902035305 68 35 1.0 3.0 0.00 0.00 0.00 90 1020.0
20260902034805 68 116 2.0 3.0 0.00 0.00 0.00 90 1020.0
20260902034305 68 83 2.0 3.0 0.00 0.00 0.00 90 1020.0
20260902031804 68 78 2.0 3.0 0.00 0.00 0.00 90 1021.0
20260902031305 68 94 2.0 5.0 0.00 0.00 0.00 90 1021.0
20260902030305 68 33 2.0 3.0 0.00 0.00 0.00 90 1021.0
20260902025805 68 77 2.0 3.0 0.00 0.00 0.00 90 1021.0
20260902025306 68 98 1.0 3.0 0.00 0.00 0.00 90 1021.0
20260902024304 68 35 0.0 2.0 0.00 0.00 0.00 89 1021.0
20260902023804 68 40 1.0 3.0 0.00 0.00 0.00 89 1021.0
20260902023305 68 27 1.0 3.0 0.00 0.00 0.00 89 1021.0
20260902022805 68 15 0.0 2.0 0.00 0.00 0.00 89 1021.0
20260902022306 68 5 0.0 1.0 0.00 0.00 0.00 89 1021.0
20260902021305 68 1 1.0 3.0 0.00 0.00 0.00 89 1021.0
20260902020804 68 25 1.0 3.0 0.00 0.00 0.00 89 1021.0
20260902020305 68 19 1.0 2.0 0.00 0.00 0.00 89 1021.0
20260902015306 68 5 1.0 3.0 0.00 0.00 0.00 89 1021.0
20260902014805 68 317 0.0 2.0 0.00 0.00 0.00 89 1021.0
20260902014305 68 315 1.0 2.0 0.00 0.00 0.00 88 1021.0
20260902013304 68 355 0.0 1.0 0.00 0.00 0.00 88 1021.0
20260902012805 69 11 1.0 2.0 0.00 0.00 0.00 88 1021.0
20260902012309 69 285 0.0 1.0 0.00 0.00 0.00 88 1021.0
20260902005805 69 259 0.0 3.0 0.00 0.00 0.00 89 1022.0
20260902005306 69 313 0.0 0.0 0.00 0.00 0.00 88 1022.0
20260902004805 69 272 0.0 1.0 0.00 0.00 0.00 88 1022.0
20260902004305 69 340 0.0 0.0 0.00 0.00 0.00 88 1022.0
20260902003804 69 340 0.0 0.0 0.00 0.00 0.00 88 1022.0
20260902003305 69 340 0.0 0.0 0.00 0.00 0.00 88 1022.0
20260902002804 69 340 0.0 0.0 0.00 0.00 0.00 88 1022.0
20260902002306 69 355 0.0 0.0 0.00 0.00 0.00 88 1022.0
20260902001805 69 355 0.0 0.0 0.00 0.00 0.00 88 1022.0
20260902001305 69 357 0.0 0.0 0.00 0.00 0.00 88 1022.0
20260902000305 69 31 0.0 0.0 0.00 0.00 0.00 88 1022.0
20260901234805 69 96 0.0 0.0 0.00 0.00 0.00 88 1022.0
20260901234304 69 78 0.0 1.0 0.00 0.00 0.00 88 1022.0
20260901231804 70 40 0.0 1.0 0.00 0.00 0.00 88 1022.0
20260901231305 70 50 0.0 1.0 0.00 0.00 0.00 88 1022.0
20260901222804 70 79 0.0 1.0 0.00 0.00 0.00 87 1022.0
20260901222306 70 57 0.0 2.0 0.00 0.00 0.00 87 1022.0
20260901221304 70 77 1.0 2.0 0.00 0.00 0.00 86 1022.0
20260901220805 70 73 1.0 2.0 0.00 0.00 0.00 86 1022.0
20260901215804 70 68 0.0 1.0 0.00 0.00 0.00 86 1022.0
20260901215306 70 79 0.0 2.0 0.00 0.00 0.00 86 1022.0
20260901214305 70 77 0.0 2.0 0.00 0.00 0.00 85 1022.0
20260901213805 70 86 0.0 2.0 0.00 0.00 0.00 85 1022.0
20260901213304 70 89 0.0 3.0 0.00 0.00 0.00 85 1022.0
20260901212805 70 83 0.0 2.0 0.00 0.00 0.00 84 1022.0
20260901212306 70 86 0.0 1.0 0.00 0.00 0.00 84 1022.0
20260901211805 70 119 0.0 1.0 0.00 0.00 0.00 84 1022.0
20260901210805 71 45 0.0 1.0 0.00 0.00 0.00 83 1022.0
20260901210306 71 70 0.0 2.0 0.00 0.00 0.00 83 1022.0
20260901204304 71 69 0.0 2.0 0.00 0.00 0.00 82 1022.0
20260901203805 71 88 0.0 1.0 0.00 0.00 0.00 82 1021.0
20260901202306 72 88 0.0 2.0 0.00 0.00 0.00 81 1021.0
20260901201804 72 88 0.0 2.0 0.00 0.00 0.00 81 1021.0
20260901201305 72 214 0.0 0.0 0.00 0.00 0.00 82 1021.0
20260901200804 72 214 0.0 1.0 0.00 0.00 0.00 81 1021.0
20260901200305 72 214 0.0 2.0 0.00 0.00 0.00 81 1021.0
20260901195805 73 214 1.0 2.0 0.00 0.00 0.00 81 1021.0
20260901195306 73 214 1.0 3.0 0.00 0.00 0.00 81 1021.0
20260901194805 73 223 1.0 3.0 0.00 0.00 0.00 80 1021.0
20260901194304 73 257 1.0 2.0 0.00 0.00 0.00 80 1021.0
20260901192804 73 267 1.0 3.0 0.00 0.00 0.00 80 1021.0
20260901192306 73 254 2.0 3.0 0.00 0.00 0.00 80 1021.0
20260901191804 73 241 3.0 9.0 0.00 0.00 0.00 80 1021.0
20260901190304 74 254 5.0 8.0 0.00 0.00 0.00 79 1021.0
20260901185804 74 269 4.0 7.0 0.00 0.00 0.00 79 1021.0
20260901183304 75 280 4.0 6.0 0.00 0.00 0.00 76 1021.0
20260901182804 75 266 3.0 6.0 0.00 0.00 0.00 77 1021.0
20260901182305 76 277 2.0 5.0 0.00 0.00 0.00 77 1021.0
20260901181304 76 258 3.0 6.0 0.00 0.00 0.00 76 1021.0
20260901180805 76 241 3.0 5.0 0.00 0.00 0.00 76 1021.0
20260901180304 76 284 2.0 5.0 0.00 0.00 0.00 77 1021.0
20260901175804 76 265 3.0 6.0 0.00 0.00 0.00 76 1021.0
20260901175305 76 259 3.0 5.0 0.00 0.00 0.00 77 1021.0
20260901174805 76 267 3.0 6.0 0.00 0.00 0.00 77 1021.0
20260901174304 76 261 5.0 7.0 0.00 0.00 0.00 77 1021.0
20260901173805 76 206 3.0 5.0 0.00 0.00 0.00 76 1021.0
20260901173305 76 243 5.0 7.0 0.00 0.00 0.00 76 1021.0
20260901165805 76 203 5.0 9.0 0.00 0.00 0.00 78 1021.0
20260901165306 76 223 4.0 7.0 0.00 0.00 0.00 75 1021.0